Weather History for Alma, GA

Change the Weather History Date:

Tuesday, January 29, 2013

  Actual Average Record
Temperature  
Mean Temperature 67 °F 52 °F  
Max Temperature 83 °F 63 °F 83 °F (2013)
Min Temperature 51 °F 41 °F 23 °F (1977)
Degree Days  
Heating Degree Days 0 14  
Month to date heating degree days 240 424  
Since 1 July heating degree days 834 1064  
Cooling Degree Days 2 0  
Month to date cooling degree days 21 0  
Year to date cooling degree days 21 0  
Growing Degree Days 16 (Base 50)    
Moisture  
Dew Point 56 °F    
Average Humidity 72    
Maximum Humidity 100    
Minimum Humidity 43    
Precipitation  
Precipitation 0.00 in 0.14 in 1.18 in (1991)
Month to date precipitation 0.19 3.96  
Year to date precipitation 0.19 3.96  
Snow  
Snow 0.00 in 0.00 in 0.00 in ()
Month to date snowfall 0.0 0.0  
Since 1 July snowfall 0.0 0.1  
Snow Depth 0.00 in    
Sea Level Pressure  
Sea Level Pressure 30.20 in    
Wind  
Wind Speed 5 mph (SSE)    
Max Wind Speed 15 mph    
Max Gust Speed 22 mph    
Visibility 4 miles    
Events Fog    
T = Trace of Precipitation, MM = Missing Value Source: NWS Daily Summary

Daily Weather History Graph

Daily Weather History Graph

Search for Another Location

Airport:

Trip Planner

Search our weather history database for the weather conditions in past years. The results will help you decide how hot, cold, wet, or windy it might be!

Date:

Astronomy

Jan. 29, 2013 Rise Set
Actual Time 7:24 AM EST 6:02 PM EST
Civil Twilight 6:58 AM EST 6:27 PM EST
Nautical Twilight 6:29 AM EST 6:57 PM EST
Astronomical Twilight 6:00 AM EST 7:25 PM EST
Moon 8:42 PM EST (1/29) 8:33 AM EST (1/29)
Length of Visible Light 11h 29m
Length of Day
10h 37m
Waning Gibbous, 94% of the Moon is Illuminated
Jan 29
Waning Gibbous
Feb 3
Last Quarter
Feb 10
New
Feb 17
First Quarter
Feb 25
Full

Hourly Weather History & Observations

Time (EST) Temp. Heat Index Dew Point Humidity Pressure Visibility Wind Dir Wind Speed Gust Speed Precip Events Conditions
12:53 AM 59.0 °F - 57.0 °F 93% 30.26 in 3.0 mi Calm Calm - N/A   Clear
1:03 AM 59.0 °F - 55.4 °F 88% 30.27 in 1.5 mi Calm Calm - N/A   Clear
1:06 AM 59.0 °F - 55.4 °F 88% 30.26 in 1.0 mi Calm Calm - N/A   Mist
1:15 AM 57.2 °F - 55.4 °F 94% 30.26 in 0.5 mi Calm Calm - N/A Fog Fog
1:21 AM 55.4 °F - 55.4 °F 100% 30.26 in 0.2 mi Calm Calm - N/A Fog Fog
1:28 AM 55.4 °F - 53.6 °F 94% 30.25 in 0.5 mi Calm Calm - N/A Fog Fog
1:42 AM 55.4 °F - 55.4 °F 100% 30.25 in 0.2 mi Calm Calm - N/A Fog Fog
1:53 AM 55.9 °F - 54.0 °F 93% 30.25 in 0.2 mi Calm Calm - N/A Fog Fog
2:14 AM 57.2 °F - 55.4 °F 94% 30.25 in 0.2 mi Calm Calm - N/A Fog Fog
2:42 AM 53.6 °F - 53.6 °F 100% 30.25 in 0.2 mi Calm Calm - N/A Fog Fog
2:53 AM 53.1 °F - 52.0 °F 96% 30.24 in 0.2 mi Calm Calm - N/A Fog Fog
3:00 AM 53.6 °F - 51.8 °F 94% 30.25 in 0.2 mi Calm Calm - N/A Fog Fog
3:12 AM 53.6 °F - 51.8 °F 94% 30.24 in 0.2 mi Calm Calm - N/A Fog Fog
3:38 AM 53.6 °F - 51.8 °F 94% 30.24 in 0.2 mi Calm Calm - N/A Fog Fog
3:49 AM 53.6 °F - 51.8 °F 94% 30.24 in 0.5 mi Calm Calm - N/A Fog Fog
3:53 AM 53.1 °F - 52.0 °F 96% 30.23 in 0.5 mi Calm Calm - N/A Fog Fog
3:57 AM 53.6 °F - 51.8 °F 94% 30.24 in 0.2 mi Calm Calm - N/A Fog Fog
4:23 AM 51.8 °F - 51.8 °F 100% 30.23 in 0.2 mi Calm Calm - N/A Fog Fog
4:53 AM 52.0 °F - 50.0 °F 93% 30.23 in 0.2 mi Calm Calm - N/A Fog Fog
5:53 AM 51.1 °F - 50.0 °F 96% 30.23 in 0.2 mi Calm Calm - N/A Fog Fog
6:13 AM 51.8 °F - 50.0 °F 94% 30.23 in 0.5 mi Calm Calm - N/A Fog Fog
6:48 AM 51.8 °F - 50.0 °F 94% 30.24 in 0.2 mi Calm Calm - N/A Fog Fog
6:53 AM 52.0 °F - 50.0 °F 93% 30.24 in 0.2 mi Calm Calm - N/A Fog Fog
7:53 AM 54.0 °F - 53.1 °F 97% 30.24 in 0.2 mi Calm Calm - N/A Fog Fog
8:48 AM 57.2 °F - 57.2 °F 100% 30.24 in 1.0 mi Calm Calm - N/A   Overcast
8:53 AM 59.0 °F - 57.9 °F 96% 30.24 in 1.5 mi Calm Calm - N/A   Overcast
9:04 AM 59.0 °F - 57.2 °F 94% 30.24 in 2.0 mi Calm Calm - N/A   Overcast
9:27 AM 60.8 °F - 60.8 °F 100% 30.24 in 3.0 mi SSE 4.6 mph - N/A   Mostly Cloudy
9:35 AM 62.6 °F - 60.8 °F 94% 30.24 in 4.0 mi SE 4.6 mph - N/A   Mostly Cloudy
9:53 AM 62.1 °F - 61.0 °F 96% 30.24 in 5.0 mi SSE 6.9 mph - N/A   Mostly Cloudy
10:09 AM 62.6 °F - 60.8 °F 94% 30.23 in 5.0 mi SSE 3.5 mph - N/A   Mostly Cloudy
10:53 AM 71.1 °F - 63.0 °F 75% 30.23 in 9.0 mi South 10.4 mph - N/A   Partly Cloudy
11:53 AM 77.0 °F - 61.0 °F 58% 30.20 in 10.0 mi South 11.5 mph - N/A   Scattered Clouds
12:53 PM 79.0 °F - 61.0 °F 54% 30.16 in 10.0 mi SSE 10.4 mph - N/A   Scattered Clouds
1:53 PM 79.0 °F - 60.1 °F 52% 30.13 in 10.0 mi South 11.5 mph - N/A   Partly Cloudy
2:53 PM 82.0 °F 82.0 °F 57.9 °F 44% 30.11 in 10.0 mi South 9.2 mph 16.1 mph N/A   Mostly Cloudy
3:53 PM 80.1 °F 80.6 °F 57.9 °F 47% 30.10 in 10.0 mi SSE 9.2 mph 20.7 mph N/A   Partly Cloudy
4:53 PM 79.0 °F - 57.9 °F 48% 30.08 in 10.0 mi South 11.5 mph - N/A   Partly Cloudy
5:53 PM 75.9 °F - 59.0 °F 56% 30.07 in 10.0 mi SSE 5.8 mph - N/A   Partly Cloudy
6:53 PM 72.0 °F - 59.0 °F 64% 30.08 in 10.0 mi SE 3.5 mph - N/A   Clear
7:53 PM 70.0 °F - 61.0 °F 73% 30.08 in 8.0 mi SE 5.8 mph - N/A   Clear
8:53 PM 70.0 °F - 63.0 °F 78% 30.09 in 10.0 mi SSE 8.1 mph - N/A   Clear
9:53 PM 68.0 °F - 62.1 °F 81% 30.11 in 10.0 mi SE 3.5 mph - N/A   Clear
10:53 PM 66.0 °F - 62.1 °F 87% 30.10 in 10.0 mi SE 3.5 mph - N/A   Scattered Clouds
11:53 PM 66.9 °F - 63.0 °F 87% 30.08 in 10.0 mi SE 6.9 mph - N/A   Overcast